Hourly Weather Namibe

Today, 11 July, Saturday

Time Temperature Precipitation Wind Pressure Humidity
00:00 +15°C° 0 mm 4 mps 760 mmHg 76%
01:00 +16°C° 0 mm 3 mps 760 mmHg 71%
02:00 +14°C° 0 mm 4 mps 759 mmHg 71%
03:00 +14°C° 0 mm 4 mps 759 mmHg 72%
04:00 +14°C° 0 mm 4 mps 758 mmHg 72%
05:00 +14°C° 0 mm 3 mps 759 mmHg 71%
06:00 +14°C° 0 mm 3 mps 759 mmHg 69%
07:00 +15°C° 0 mm 2 mps 759 mmHg 67%
08:00 +18°C° 0 mm 2 mps 759 mmHg 55%
09:00 +23°C° 0 mm 2 mps 760 mmHg 42%
10:00 +27°C° 0 mm 2 mps 760 mmHg 29%
11:00 +28°C° 0 mm 2 mps 759 mmHg 29%
12:00 +29°C° 0 mm 3 mps 758 mmHg 29%
13:00 +30°C° 0 mm 4 mps 757 mmHg 28%
14:00 +29°C° 0 mm 4 mps 757 mmHg 31%
15:00 +28°C° 0 mm 4 mps 757 mmHg 33%
16:00 +28°C° 0 mm 4 mps 757 mmHg 36%
17:00 +25°C° 0 mm 4 mps 757 mmHg 46%
18:00 +22°C° 0 mm 3 mps 757 mmHg 56%
19:00 +19°C° 0 mm 3 mps 757 mmHg 66%
20:00 +19°C° 0 mm 3 mps 758 mmHg 64%
21:00 +19°C° 0 mm 3 mps 758 mmHg 62%
22:00 +18°C° 0 mm 3 mps 759 mmHg 60%
23:00 +18°C° 0 mm 3 mps 759 mmHg 57%

Tomorrow, 12 July, Sunday

Time Temperature Precipitation Wind Pressure Humidity
00:00 +18°C° 0 mm 3 mps 759 mmHg 55%
01:00 +18°C° 0 mm 3 mps 758 mmHg 52%
02:00 +18°C° 0 mm 3 mps 758 mmHg 54%
03:00 +17°C° 0 mm 3 mps 758 mmHg 56%
04:00 +17°C° 0 mm 3 mps 758 mmHg 59%
05:00 +17°C° 0 mm 3 mps 759 mmHg 60%
06:00 +17°C° 0 mm 2 mps 759 mmHg 61%
07:00 +17°C° 0 mm 2 mps 759 mmHg 62%
08:00 +20°C° 0 mm 2 mps 759 mmHg 51%
09:00 +25°C° 0 mm 2 mps 759 mmHg 41%
10:00 +28°C° 0 mm 2 mps 760 mmHg 31%
11:00 +28°C° 0 mm 3 mps 759 mmHg 35%
12:00 +29°C° 0 mm 4 mps 759 mmHg 39%
13:00 +29°C° 0 mm 5 mps 758 mmHg 43%
14:00 +28°C° 0 mm 5 mps 758 mmHg 48%
15:00 +26°C° 0 mm 5 mps 757 mmHg 52%
16:00 +25°C° 0 mm 5 mps 757 mmHg 56%
17:00 +22°C° 0 mm 5 mps 757 mmHg 66%
18:00 +21°C° 0 mm 4 mps 758 mmHg 76%
19:00 +19°C° 0 mm 4 mps 759 mmHg 86%
20:00 +18°C° 0 mm 3 mps 759 mmHg 86%
21:00 +17°C° 0 mm 3 mps 759 mmHg 86%
22:00 +17°C° 0 mm 2 mps 760 mmHg 87%
23:00 +17°C° 0 mm 3 mps 760 mmHg 86%

Day after tomorrow, 13 July, Monday

Time Temperature Precipitation Wind Pressure Humidity
00:00 +16°C° 0 mm 3 mps 759 mmHg 85%
01:00 +16°C° 0 mm 3 mps 759 mmHg 84%
02:00 +16°C° 0 mm 3 mps 759 mmHg 85%
03:00 +15°C° 0 mm 2 mps 759 mmHg 86%
04:00 +15°C° 0 mm 2 mps 758 mmHg 87%
05:00 +15°C° 0 mm 1 mps 758 mmHg 86%
06:00 +16°C° 0 mm 1 mps 759 mmHg 85%
07:00 +16°C° 0 mm 1 mps 759 mmHg 84%
08:00 +20°C° 0 mm 1 mps 759 mmHg 71%
09:00 +23°C° 0 mm 2 mps 759 mmHg 59%
10:00 +26°C° 0 mm 2 mps 759 mmHg 47%
11:00 +27°C° 0 mm 3 mps 759 mmHg 46%
12:00 +28°C° 0 mm 4 mps 758 mmHg 45%
13:00 +29°C° 0 mm 5 mps 758 mmHg 44%
14:00 +28°C° 0 mm 5 mps 757 mmHg 49%
15:00 +27°C° 0 mm 5 mps 757 mmHg 54%
16:00 +25°C° 0 mm 5 mps 756 mmHg 59%
17:00 +23°C° 0 mm 4 mps 757 mmHg 68%
18:00 +21°C° 0 mm 3 mps 757 mmHg 77%
19:00 +19°C° 0 mm 2 mps 758 mmHg 87%
20:00 +20°C° 0 mm 1 mps 758 mmHg 88%
21:00 +19°C° 0 mm 1 mps 758 mmHg 89%
22:00 +19°C° 0 mm 1 mps 759 mmHg 90%
23:00 +18°C° 0 mm 1 mps 759 mmHg 90%

14 July, Tuesday

Time Temperature Precipitation Wind Pressure Humidity
00:00 +18°C° 0 mm 1 mps 758 mmHg 90%
01:00 +16°C° 0 mm 1 mps 758 mmHg 90%
02:00 +18°C° 0 mm 1 mps 758 mmHg 90%
03:00 +18°C° 0 mm 1 mps 758 mmHg 90%
04:00 +17°C° 0 mm 2 mps 758 mmHg 90%
05:00 +17°C° 0 mm 2 mps 758 mmHg 90%
06:00 +17°C° 0 mm 2 mps 758 mmHg 91%
07:00 +17°C° 0 mm 3 mps 759 mmHg 91%
08:00 +20°C° 0 mm 3 mps 759 mmHg 81%
09:00 +22°C° 0 mm 3 mps 759 mmHg 71%
10:00 +26°C° 0 mm 4 mps 759 mmHg 61%
11:00 +26°C° 0 mm 4 mps 758 mmHg 59%
12:00 +27°C° 0 mm 5 mps 758 mmHg 58%
13:00 +28°C° 0 mm 6 mps 757 mmHg 57%
14:00 +27°C° 0 mm 6 mps 757 mmHg 61%
15:00 +26°C° 0 mm 6 mps 756 mmHg 66%
16:00 +25°C° 0 mm 5 mps 756 mmHg 70%
17:00 +23°C° 0 mm 4 mps 757 mmHg 76%
18:00 +22°C° 0 mm 3 mps 757 mmHg 81%
19:00 +21°C° 0 mm 2 mps 758 mmHg 86%
20:00 +21°C° 0 mm 1 mps 758 mmHg 88%
21:00 +21°C° 0 mm 1 mps 759 mmHg 89%
22:00 +18°C° 0 mm 0 mps 759 mmHg 91%
23:00 +17°C° 0 mm 0 mps 759 mmHg 91%

15 July, Wednesday

Time Temperature Precipitation Wind Pressure Humidity
00:00 +17°C° 0 mm 0 mps 759 mmHg 92%
01:00 +16°C° 0 mm 0 mps 759 mmHg 93%
02:00 +16°C° 0 mm 0 mps 759 mmHg 93%
03:00 +16°C° 0 mm 0 mps 759 mmHg 93%
04:00 +15°C° 0 mm 0 mps 758 mmHg 94%
05:00 +16°C° 0 mm 0 mps 759 mmHg 93%
06:00 +18°C° 0 mm 1 mps 759 mmHg 93%
07:00 +18°C° 0 mm 1 mps 760 mmHg 93%
08:00 +19°C° 0 mm 2 mps 760 mmHg 84%
09:00 +22°C° 0 mm 3 mps 760 mmHg 75%
10:00 +25°C° 0 mm 3 mps 760 mmHg 65%
11:00 +26°C° 0 mm 3 mps 759 mmHg 62%
12:00 +27°C° 0 mm 3 mps 759 mmHg 58%
13:00 +28°C° 0 mm 3 mps 758 mmHg 54%
14:00 +27°C° 0 mm 4 mps 758 mmHg 58%
15:00 +26°C° 0 mm 4 mps 757 mmHg 62%
16:00 +26°C° 0 mm 4 mps 757 mmHg 66%
17:00 +23°C° 0 mm 4 mps 757 mmHg 74%
18:00 +21°C° 0 mm 3 mps 758 mmHg 83%
19:00 +20°C° 0 mm 2 mps 758 mmHg 92%
20:00 +20°C° 0 mm 2 mps 759 mmHg 92%
21:00 +19°C° 0 mm 2 mps 759 mmHg 92%
22:00 +19°C° 0 mm 3 mps 760 mmHg 93%
23:00 +19°C° 0 mm 2 mps 760 mmHg 93%

16 July, Thursday

Time Temperature Precipitation Wind Pressure Humidity
00:00 +18°C° 0 mm 2 mps 760 mmHg 93%
01:00 +19°C° 0 mm 1 mps 760 mmHg 93%
02:00 +18°C° 0 mm 1 mps 759 mmHg 92%
03:00 +18°C° 0 mm 1 mps 759 mmHg 92%
04:00 +16°C° 0 mm 1 mps 759 mmHg 92%
05:00 +18°C° 0 mm 1 mps 759 mmHg 90%
06:00 +18°C° 0 mm 1 mps 760 mmHg 87%
07:00 +18°C° 0 mm 1 mps 760 mmHg 85%
08:00 +21°C° 0 mm 1 mps 760 mmHg 73%
09:00 +24°C° 0 mm 2 mps 761 mmHg 61%
10:00 +27°C° 0 mm 2 mps 761 mmHg 49%
11:00 +27°C° 0 mm 3 mps 760 mmHg 49%
12:00 +28°C° 0 mm 4 mps 759 mmHg 50%
13:00 +28°C° 0 mm 5 mps 759 mmHg 50%
14:00 +28°C° 0 mm 5 mps 758 mmHg 54%
15:00 +27°C° 0 mm 5 mps 758 mmHg 58%
16:00 +26°C° 0 mm 5 mps 758 mmHg 62%
17:00 +23°C° 0 mm 4 mps 758 mmHg 73%
18:00 +21°C° 0 mm 3 mps 759 mmHg 84%
19:00 +20°C° 0 mm 1 mps 759 mmHg 95%
20:00 +21°C° 0 mm 1 mps 760 mmHg 91%
21:00 +21°C° 0 mm 1 mps 760 mmHg 88%
22:00 +22°C° 0 mm 1 mps 761 mmHg 84%
23:00 +21°C° 0 mm 1 mps 761 mmHg 86%
Show more